Wind_Speed
22 22 23 22 22 23 22 22 23 22 22 23 24 25 26 28 29 30 31 31 31 32 33 34 35 36 37 38 40 41 41 40 39 39 37 31 32 36 34 33 32 33 33 30 29 30 30 30 31 32 34 35 37 36 36 36 35 35 38 41 42 42 41 40 38 35 33 30 25 21 21 23 23 22 17 16 19 18 17 16 13 12 14 15 14 13 12 10
23 23 23 23 24 24 24 24 24 24 24 24 24 24 24 25 26 27 29 29 30 31 32 32 33 35 36 36 37 39 39 39 38 37 35 35 38 38 35 34 32 33 32 29 28 28 28 29 31 34 35 36 36 35 35 36 36 38 39 42 44 43 41 39 37 34 31 28 24 21 22 25 23 18 12 11 15 17 17 16 15 15 14 15 17 15 13 10
26 26 25 25 25 25 25 25 25 26 26 26 25 25 25 25 25 25 26 27 28 30 31 32 32 33 34 35 36 36 36 37 37 35 36 39 39 37 36 34 32 33 31 28 29 28 28 29 32 35 36 36 35 34 35 36 37 38 40 42 44 41 38 37 35 33 30 28 25 23 25 25 21 13 9 7 12 15 14 13 13 16 16 17 17 13 8 6
27 28 27 27 26 26 26 26 26 26 26 27 27 26 26 25 25 25 25 25 26 28 30 31 32 32 32 33 34 35 34 34 36 36 37 40 39 37 35 32 32 33 31 29 29 28 28 30 33 35 36 36 35 35 37 37 37 38 41 43 40 37 36 34 32 31 29 28 26 25 27 26 20 12 9 8 11 12 12 12 12 14 16 16 14 7 4 5
26 27 27 27 26 26 26 26 26 26 26 26 27 27 26 26 25 24 24 24 25 26 28 29 31 31 31 31 32 33 32 31 34 36 37 38 38 37 34 32 32 32 31 30 29 29 30 31 33 36 37 37 36 37 39 37 37 39 41 40 37 36 34 30 28 28 28 28 27 27 30 28 21 15 12 12 12 12 12 13 13 13 15 15 10 4 1 2
27 26 26 26 26 26 26 26 26 26 26 26 26 26 26 26 25 24 24 23 24 25 26 28 29 30 30 30 31 31 31 29 28 31 35 36 36 36 35 33 32 31 31 31 30 30 31 31 34 37 38 37 37 39 38 36 38 40 40 39 37 35 32 27 27 28 27 29 28 27 30 28 24 20 15 14 12 11 14 15 16 14 14 13 8 5 4 0
28 27 27 27 27 27 27 27 27 27 27 26 26 25 25 25 24 24 23 23 23 24 25 26 27 29 29 29 30 31 33 30 25 25 30 34 35 35 35 34 34 33 32 32 31 31 32 33 35 37 37 37 37 39 36 35 39 42 41 39 36 34 32 28 27 27 27 29 29 28 30 30 27 21 16 15 11 9 14 17 18 17 14 12 9 6 2 3
27 28 28 28 28 27 27 26 26 25 25 24 24 24 24 23 23 22 22 23 23 23 25 24 25 27 27 28 29 32 34 27 24 25 26 30 33 34 35 36 36 35 35 34 32 33 34 35 36 37 37 37 36 37 35 36 41 44 42 39 36 34 31 30 28 28 28 28 29 31 33 32 29 22 17 16 12 11 12 14 17 17 13 10 8 6 4 4
26 27 27 27 27 26 25 23 22 22 21 22 22 23 23 22 21 21 21 22 23 24 24 24 24 25 25 26 28 34 31 20 23 28 26 27 30 33 36 37 39 37 36 36 35 36 36 36 35 35 35 35 35 36 35 37 41 43 41 38 36 35 32 30 30 29 27 27 27 31 34 33 28 24 21 16 13 13 12 13 15 14 11 9 9 9 10 11
25 25 25 25 25 24 23 21 21 20 19 19 20 21 22 22 20 20 20 21 23 24 24 24 23 24 25 24 27 31 24 20 26 29 28 28 29 32 36 37 39 38 36 36 37 38 36 33 32 33 34 34 36 36 36 39 40 39 39 38 37 36 34 32 31 29 27 26 25 26 29 28 24 23 22 16 14 17 14 15 15 12 11 9 8 10 13 16
25 24 23 23 22 22 21 21 21 20 20 20 20 19 20 20 20 20 21 21 23 24 25 25 24 25 25 25 28 24 18 23 29 29 30 31 31 32 35 37 39 39 37 37 38 37 35 32 31 34 36 35 37 35 36 39 38 37 36 38 39 37 36 35 33 29 28 27 24 21 21 21 20 22 23 17 16 19 17 18 19 16 15 11 9 11 15 16
25 23 22 22 22 22 22 22 22 22 22 22 22 21 20 21 21 23 23 23 22 23 25 25 26 26 26 29 25 15 16 25 28 32 34 33 33 33 34 36 37 38 38 37 37 36 34 34 35 38 37 35 36 33 34 38 37 36 35 35 37 38 38 37 34 30 27 27 23 17 19 21 23 24 23 18 19 21 20 21 22 21 20 18 16 17 17 15
24 23 23 22 23 23 23 23 24 24 25 24 24 23 22 22 22 23 23 23 22 23 25 26 28 27 30 32 19 11 20 24 26 32 33 33 34 34 33 33 35 37 37 37 36 35 35 37 39 40 37 35 36 32 29 35 37 36 35 34 32 34 38 37 34 31 28 27 22 16 22 24 25 25 21 17 19 21 22 23 22 21 21 22 22 22 20 15
25 24 24 24 24 24 25 25 26 27 27 26 25 23 22 21 21 22 22 22 22 23 24 26 28 28 33 30 15 14 23 22 22 27 32 36 35 34 33 32 34 36 37 37 37 36 36 38 40 40 39 37 36 33 27 29 35 34 31 33 31 30 35 35 32 32 30 27 23 20 26 27 23 21 17 17 19 20 23 23 21 19 20 22 21 19 16 11
25 25 25 25 25 26 26 27 28 28 28 27 25 23 22 22 22 22 22 22 22 24 24 25 27 28 33 27 15 16 19 19 20 24 33 39 37 34 33 32 34 36 37 37 37 37 37 39 42 42 43 39 33 34 30 25 30 33 29 30 33 31 31 32 31 32 32 26 23 23 26 27 24 18 13 14 19 21 23 20 18 17 18 19 17 14 12 9
25 25 26 26 26 27 27 27 28 28 27 25 23 23 22 23 23 23 24 24 24 25 25 26 26 29 31 23 16 16 16 21 24 23 31 39 39 34 32 34 35 36 36 37 38 38 39 42 44 43 43 41 36 35 33 27 28 33 32 28 30 32 29 29 31 32 31 26 25 26 24 25 25 20 17 17 18 21 22 19 16 15 16 18 16 14 12 11
25 26 26 26 26 26 26 26 27 26 25 24 23 23 23 23 24 25 25 25 26 27 28 28 28 31 30 21 16 16 16 23 24 21 26 34 39 37 34 35 35 35 36 38 40 41 43 44 45 44 43 43 39 34 32 32 32 32 32 28 24 29 31 29 30 31 30 27 26 27 26 26 22 19 20 20 20 23 23 22 19 17 15 16 17 15 13 13
25 26 26 25 25 25 24 25 26 25 24 24 24 24 24 25 25 26 26 27 28 29 30 29 29 32 29 19 18 20 21 24 22 18 21 29 37 40 37 35 34 35 36 38 42 43 44 44 44 45 46 46 43 41 36 34 35 32 30 30 25 26 31 31 30 30 29 28 26 26 27 27 23 19 19 19 22 24 24 22 20 19 16 15 17 17 15 14
26 26 26 25 23 22 22 23 25 25 24 24 25 25 25 26 25 25 25 25 27 27 27 28 29 31 28 18 15 19 20 21 21 19 21 24 33 42 41 36 35 36 37 39 42 44 45 42 42 46 51 53 49 47 41 29 30 30 27 31 30 27 31 32 29 26 25 25 25 25 25 24 23 21 20 21 23 24 23 20 18 19 19 17 17 18 17 16
27 26 26 24 22 20 19 21 24 24 24 25 25 24 24 23 22 22 22 23 24 24 24 26 29 31 30 24 21 22 20 17 18 18 20 24 31 42 44 39 37 37 39 41 41 43 43 41 46 52 54 55 50 46 42 31 28 27 25 28 30 28 28 28 25 22 21 23 23 22 23 22 22 21 20 23 26 27 27 23 19 19 20 19 18 18 18 17
27 25 24 22 19 17 17 20 23 23 25 26 24 22 21 21 21 22 23 22 20 21 23 24 27 31 30 28 27 29 29 25 21 16 18 26 32 41 46 43 40 40 42 41 39 40 41 43 50 53 50 51 50 45 41 37 32 27 24 25 28 29 28 24 20 18 20 21 21 20 21 23 23 21 20 24 29 29 29 25 21 18 17 16 16 17 17 18
26 24 22 18 16 15 16 19 21 23 25 24 21 19 18 19 21 24 26 25 22 19 19 19 23 28 27 27 28 29 33 33 27 19 19 27 34 41 45 46 44 43 41 39 38 39 42 46 48 47 46 46 46 45 41 39 36 30 24 23 26 28 27 24 19 17 18 20 21 21 23 24 25 24 23 24 27 26 24 22 20 17 15 14 15 16 17 19
26 23 20 18 17 16 16 19 21 23 24 21 19 18 18 19 20 22 24 27 26 18 13 14 18 23 22 23 27 29 34 35 30 24 22 28 37 40 43 47 46 42 41 41 41 41 40 42 44 43 43 43 43 43 42 39 37 34 28 24 25 25 23 21 18 17 18 21 22 22 23 26 26 27 27 25 25 24 23 22 21 20 16 13 13 15 17 19
26 24 20 18 19 18 16 18 21 22 22 19 18 18 19 19 19 20 21 25 26 15 9 12 15 18 16 15 22 28 33 34 30 25 24 30 37 39 41 46 45 42 43 42 42 41 35 33 40 42 40 41 41 41 43 41 38 36 32 27 24 24 20 16 16 16 18 21 24 22 20 25 29 28 27 26 24 24 25 26 25 23 19 15 15 17 18 19
25 24 22 19 19 18 16 17 20 21 19 18 17 17 18 19 18 18 19 23 23 13 10 12 11 11 9 13 23 27 28 32 31 26 28 33 35 38 40 42 43 43 44 41 39 41 35 27 35 42 40 41 40 41 44 42 38 37 36 31 26 23 19 16 15 13 13 15 20 21 15 18 28 29 27 26 24 24 26 28 28 26 23 20 18 19 20 21
24 25 23 19 18 18 16 17 19 19 17 16 16 16 18 18 17 17 17 19 15 11 15 14 7 5 4 6 17 22 23 31 32 27 31 35 33 34 37 39 42 43 42 38 34 39 37 28 31 39 41 41 40 41 44 43 38 36 36 33 28 24 20 19 17 10 7 8 11 16 12 12 22 26 27 26 25 26 27 29 30 28 26 24 22 21 21 22
24 25 23 19 17 19 18 16 18 19 17 15 15 15 16 17 16 15 15 10 8 10 18 13 3 2 5 6 7 19 17 18 26 32 34 36 32 32 36 37 39 40 39 35 31 36 40 34 31 35 40 42 41 41 43 42 37 35 36 34 29 25 23 22 18 10 9 11 11 13 11 12 18 22 25 27 27 28 30 32 32 30 28 27 26 24 23 23
24 24 23 19 17 19 19 17 18 20 18 16 15 14 14 15 14 14 10 3 5 12 17 10 1 2 5 6 2 15 12 3 16 33 35 33 31 31 34 35 36 37 38 37 32 30 36 40 35 33 39 42 42 42 41 39 37 36 35 32 28 25 24 23 18 13 14 14 16 19 14 9 12 19 23 26 29 31 32 34 34 32 30 29 29 27 26 26
23 23 22 19 17 18 19 18 18 19 19 16 15 14 14 13 13 13 6 2 6 14 15 7 1 2 3 2 3 8 14 4 8 26 33 31 30 31 33 33 33 33 35 38 32 20 25 38 37 31 36 41 41 40 38 37 37 37 34 29 27 24 21 17 11 12 15 11 18 26 18 8 8 16 23 26 32 33 31 34 36 34 32 31 32 30 29 28
23 22 22 20 16 16 18 17 16 18 17 16 15 15 13 12 13 9 2 4 10 14 11 6 3 6 4 1 3 6 17 10 9 23 34 31 28 30 30 29 31 31 30 33 31 20 16 29 36 33 34 37 38 37 36 35 37 37 34 28 25 22 18 12 8 12 10 7 19 27 21 13 7 13 24 29 29 28 28 32 34 34 33 32 33 33 31 31
23 22 22 20 17 16 16 16 16 16 16 15 14 14 13 12 11 4 2 9 14 12 10 8 7 7 4 1 0 6 17 15 13 22 32 30 25 28 29 28 30 29 25 27 30 24 15 21 34 37 33 33 34 36 34 34 37 35 32 29 23 19 15 11 11 14 6 5 20 26 21 17 12 13 23 25 24 24 26 28 30 30 30 30 33 34 33 32
24 24 23 21 17 15 15 15 15 15 15 14 13 13 12 10 7 6 6 13 11 9 14 16 13 9 6 6 5 9 16 18 15 18 28 31 27 29 32 32 34 29 23 28 32 29 23 23 29 32 31 31 32 35 34 32 36 32 29 31 20 8 8 7 6 8 5 8 20 22 16 15 17 19 23 24 23 24 25 26 26 26 26 27 30 33 34 32
27 27 25 22 18 14 13 13 14 14 14 14 13 12 11 7 4 7 12 13 9 13 20 20 18 15 10 9 8 10 16 19 16 15 22 28 27 29 33 31 34 28 21 29 34 29 25 21 25 29 30 33 34 37 38 37 38 34 30 32 20 5 4 5 3 1 2 10 21 22 13 10 13 16 22 25 21 20 23 25 25 24 25 27 27 29 32 32
29 30 27 22 18 13 12 12 13 13 14 14 13 12 9 6 6 11 15 14 14 19 21 21 23 20 10 11 10 10 17 19 17 14 16 23 27 30 32 31 32 24 17 26 33 30 22 16 27 35 31 34 37 37 41 40 38 36 31 30 24 13 6 3 3 4 4 7 15 17 9 5 8 10 18 24 20 18 21 22 23 23 24 27 28 28 30 31
29 30 27 22 17 13 11 12 12 13 14 14 14 13 10 8 10 14 15 16 18 20 19 20 18 12 5 12 12 10 17 19 18 16 13 19 27 32 35 35 32 22 18 26 30 31 25 14 22 35 30 31 35 33 37 37 32 33 32 28 28 23 12 5 4 8 11 8 7 11 10 8 9 11 16 23 25 24 22 21 21 21 21 23 26 27 28 29
27 28 25 21 16 12 11 11 11 12 13 13 14 15 13 11 12 15 18 19 20 20 20 19 12 4 3 11 13 11 16 17 17 17 13 16 27 33 35 34 31 23 20 28 29 26 23 13 16 31 29 26 32 32 36 36 27 28 34 31 27 24 17 11 6 5 11 9 5 9 12 13 12 12 18 24 27 28 26 25 21 19 20 21 22 24 25 26
27 27 24 20 16 13 11 11 11 12 13 14 15 16 16 14 14 17 20 22 22 22 20 17 10 4 2 9 12 12 16 14 14 18 16 14 23 33 35 31 29 26 21 24 27 19 15 12 15 31 32 23 26 30 34 36 27 24 33 34 25 19 19 18 8 1 3 4 5 9 11 13 12 11 18 24 25 26 27 26 22 20 21 21 20 22 23 23
29 26 22 19 16 12 11 10 12 13 14 15 18 18 17 17 17 17 19 22 23 22 18 13 7 3 1 7 10 12 16 15 13 17 16 14 18 29 37 32 28 30 22 19 24 17 12 12 14 29 34 22 21 28 31 37 32 22 24 31 28 17 15 18 9 1 3 2 3 7 8 12 14 13 18 23 23 23 25 25 22 23 24 23 22 22 22 22
29 26 21 19 15 11 8 10 12 14 15 17 20 20 19 21 20 17 17 21 23 20 14 9 6 5 3 5 11 12 15 15 13 15 15 15 15 23 37 35 26 29 23 16 22 20 13 10 11 24 33 23 22 30 35 39 38 26 18 25 32 22 13 17 13 5 4 3 2 4 3 8 15 14 16 20 20 20 21 22 23 25 25 23 22 22 22 24
27 24 21 19 16 11 8 10 12 13 16 20 23 21 22 24 21 15 15 18 20 17 10 6 6 7 5 5 11 12 14 13 12 14 14 15 16 18 31 36 28 29 25 17 19 19 14 9 10 23 32 27 28 35 37 40 41 37 28 26 31 26 15 15 16 11 5 2 3 3 1 7 15 14 12 13 15 16 16 18 22 25 24 21 20 21 23 25
26 24 21 18 16 14 10 10 12 14 19 22 24 22 21 21 19 16 14 13 14 13 8 5 5 4 3 6 10 11 15 16 13 14 13 14 17 16 25 36 32 28 25 22 21 20 14 7 8 23 34 33 34 34 32 34 38 41 37 29 27 27 19 11 10 13 10 4 4 5 2 7 13 14 11 8 11 15 15 15 18 20 21 19 19 19 21 23
26 24 20 17 17 16 13 12 11 13 18 19 20 20 18 17 17 15 12 9 10 8 5 3 2 2 3 7 9 8 15 19 16 14 12 13 16 14 19 33 35 27 24 26 24 20 13 3 3 21 36 36 31 27 26 29 32 36 36 29 24 26 25 16 7 11 13 8 5 5 4 7 12 14 11 8 11 16 17 15 16 18 19 19 17 17 19 21
26 23 19 17 18 18 16 16 15 14 15 15 16 16 14 14 14 12 10 9 9 7 4 3 4 7 7 9 10 10 17 19 16 14 13 13 16 14 17 30 37 29 22 25 24 18 14 8 4 14 27 30 26 24 25 27 30 32 33 30 27 26 26 21 11 11 16 13 8 5 2 7 14 16 13 11 14 17 17 16 17 19 19 18 16 16 18 20
25 22 19 17 20 21 19 19 19 15 13 13 13 12 9 9 11 10 8 8 6 5 5 3 3 8 10 10 10 12 14 14 13 14 14 13 14 16 19 28 37 33 26 25 22 18 16 12 6 8 13 16 17 16 20 27 32 34 32 30 29 26 25 24 18 13 14 15 13 8 4 9 15 18 17 15 16 20 20 17 19 20 19 16 16 17 18 20
25 23 20 17 20 24 22 21 21 17 14 15 13 12 9 6 6 7 6 4 3 2 2 3 6 10 12 11 9 10 10 8 9 12 13 11 9 14 21 27 35 37 31 22 14 13 16 12 7 8 9 9 10 13 23 34 36 35 32 29 27 26 25 26 23 13 9 11 13 11 8 10 16 19 21 20 20 23 23 19 20 21 18 16 15 16 18 19
26 24 23 19 18 23 24 21 20 18 17 16 14 13 11 7 7 7 6 5 2 3 4 5 8 9 10 10 9 10 8 6 4 6 10 10 5 8 18 27 37 40 30 20 13 9 11 10 9 11 15 19 17 15 24 34 34 31 28 26 25 25 24 25 24 17 10 9 12 14 13 10 13 18 21 21 22 25 25 21 20 21 19 16 15 16 16 17
25 23 24 22 19 21 25 22 20 19 18 17 15 15 15 14 14 12 6 3 3 5 6 7 9 10 9 8 7 8 5 3 1 1 5 8 3 3 15 28 39 39 29 21 17 11 9 9 10 12 17 25 21 12 16 27 30 29 26 21 21 24 23 23 24 22 16 10 8 12 16 15 13 16 19 19 20 25 27 24 22 21 19 17 17 17 17 19
25 22 22 23 21 22 25 24 21 20 18 17 17 19 21 20 19 14 7 5 5 7 7 7 10 12 11 8 6 4 1 2 2 3 3 2 2 6 17 26 34 36 29 21 19 18 15 12 11 10 15 25 22 12 14 23 26 29 29 21 17 22 24 20 20 22 22 18 10 8 13 18 16 14 16 17 18 23 27 27 24 23 20 18 17 18 19 21
25 23 21 21 21 22 23 23 22 21 20 19 18 18 21 19 16 14 9 7 9 9 7 7 10 11 9 6 5 3 4 1 3 3 3 8 10 13 22 24 26 30 28 22 19 19 18 14 9 6 15 22 21 15 14 19 22 27 32 26 17 19 23 19 16 19 23 22 15 9 10 14 15 14 15 16 18 22 28 29 26 22 19 18 18 19 20 23
28 26 23 21 21 22 22 22 23 23 23 23 20 19 20 18 13 13 11 8 10 11 10 11 12 9 8 7 5 4 5 4 1 3 6 12 14 18 23 24 25 24 21 20 17 16 17 13 6 8 16 18 18 17 13 15 19 24 30 29 21 19 20 19 17 18 20 20 16 11 9 12 14 14 13 15 16 19 25 29 27 22 19 19 19 20 21 22
27 26 25 23 22 22 22 22 24 25 26 26 23 20 21 17 10 10 10 8 10 12 12 13 13 8 5 3 3 5 6 6 1 5 9 11 14 19 25 27 26 21 18 18 15 14 16 10 4 9 14 14 16 18 14 13 16 20 26 28 23 18 17 18 19 17 16 17 16 13 13 14 15 13 13 15 16 17 21 25 25 22 20 20 20 20 20 19
25 24 23 23 23 23 23 23 25 27 27 27 24 20 19 14 8 8 9 8 10 11 10 11 9 5 2 3 4 6 8 6 4 9 10 11 14 22 32 32 24 17 16 16 14 15 16 6 2 9 12 11 13 17 17 15 12 13 22 26 22 17 14 14 18 18 14 12 13 15 15 15 14 14 16 18 19 19 20 21 21 20 19 20 19 19 18 16
Wind_Direction
306 303 299 297 296 294 294 293 291 290 287 285 284 281 279 276 273 271 268 265 262 260 258 257 256 255 254 251 249 246 244 244 244 244 244 238 237 237 234 233 235 234 233 232 232 231 230 227 226 225 225 226 227 227 227 228 227 226 227 230 233 235 239 243 246 248 250 253 252 247 238 234 230 226 240 259 266 273 268 252 231 209 210 222 226 228 243 260
310 307 303 300 296 295 294 293 292 290 289 287 285 285 284 281 278 275 272 269 265 262 260 257 255 254 254 253 251 248 245 242 241 242 242 236 233 234 233 231 231 232 230 228 227 225 224 222 221 221 221 222 223 222 222 224 223 223 226 229 234 237 242 245 246 247 249 249 246 235 227 224 220 224 239 264 279 274 256 241 231 228 227 233 242 250 257 267
310 310 308 304 300 297 294 293 292 291 290 288 286 285 284 284 282 279 275 272 268 265 262 259 256 254 253 252 252 251 247 243 240 238 238 236 233 232 232 230 229 230 227 223 222 219 216 216 217 218 217 219 219 218 218 220 221 223 226 229 236 240 242 244 244 245 246 244 241 227 220 218 210 220 233 256 289 276 250 236 231 235 234 240 252 262 268 274
310 310 309 307 304 301 298 296 293 292 291 289 288 286 285 285 284 282 279 275 271 267 264 261 258 255 252 251 251 250 248 245 241 235 234 235 234 231 229 228 228 228 224 219 218 215 212 213 214 215 215 216 216 216 216 217 219 221 226 231 236 239 240 242 243 244 242 239 237 227 221 218 206 219 238 248 277 275 259 242 237 239 235 244 257 262 265 275
312 311 310 308 305 303 301 298 296 294 291 289 288 287 286 285 284 283 281 278 274 270 266 263 260 257 253 251 250 248 247 246 242 236 233 233 233 231 228 226 226 226 222 217 215 212 210 211 213 212 212 213 212 214 214 214 218 222 227 232 234 236 239 241 241 242 240 236 234 228 227 223 212 221 245 253 257 265 263 245 238 239 237 246 252 249 310 309
315 314 311 309 307 304 302 299 298 296 293 290 288 286 285 284 284 282 280 278 275 272 269 265 262 259 255 251 249 247 242 241 241 237 233 232 230 229 227 225 225 223 219 216 213 211 208 209 212 212 211 211 211 214 214 212 217 223 226 230 231 233 237 238 238 240 239 236 232 229 231 229 225 230 244 251 252 264 264 250 244 240 242 251 257 287 341 19
316 314 311 309 307 304 302 300 299 297 295 292 288 285 283 282 282 280 279 278 276 275 271 268 264 261 257 252 249 246 240 235 237 237 232 231 228 226 224 223 224 221 217 213 210 210 208 208 212 212 211 209 210 214 213 210 215 222 224 226 228 230 233 235 236 237 238 237 232 230 233 236 237 240 243 243 242 254 254 249 246 243 249 261 272 295 310 185
316 314 313 310 308 306 304 303 301 299 297 293 291 288 284 281 278 277 278 277 276 275 273 271 267 263 259 254 249 245 241 234 233 235 231 229 226 223 222 221 222 221 216 209 204 207 208 208 210 212 212 210 210 213 212 210 215 220 222 223 226 228 230 231 234 235 237 238 233 229 232 238 242 242 240 235 229 238 244 243 240 242 252 260 263 270 265 262
317 316 315 313 311 310 309 308 306 304 300 296 292 289 286 282 276 273 275 277 277 275 273 271 267 264 260 256 252 247 242 230 227 229 226 226 224 222 221 219 220 220 218 211 203 203 205 206 209 212 215 213 212 212 209 212 216 219 222 222 223 227 229 230 231 232 235 236 233 230 232 236 239 240 240 227 219 235 247 247 240 243 252 248 248 261 280 295
316 314 314 313 313 313 313 312 311 309 305 300 295 290 287 283 276 273 274 277 277 274 272 268 265 263 260 258 255 251 241 225 223 222 220 221 220 220 219 218 218 217 218 215 207 204 204 204 206 212 216 214 213 211 209 213 217 218 222 225 224 226 228 229 231 229 231 231 227 230 234 235 235 240 240 225 224 241 251 253 249 253 259 256 263 279 287 293
313 312 311 311 312 313 314 314 313 313 309 306 300 294 289 283 277 275 277 279 275 273 270 266 263 261 261 258 256 256 240 224 221 216 214 215 215 217 217 217 217 215 215 216 213 206 201 198 202 209 212 213 213 211 211 215 217 217 220 226 228 228 228 229 230 227 228 227 220 227 238 234 230 234 233 228 240 250 255 256 253 257 268 276 281 283 286 288
312 311 310 310 311 312 313 313 312 312 310 307 302 297 291 284 279 278 279 278 273 271 268 266 263 261 262 257 254 259 240 225 219 214 212 211 211 213 215 216 215 214 213 215 215 207 197 193 199 207 208 211 211 209 213 215 217 217 216 223 227 229 230 228 228 227 225 224 215 226 246 238 227 226 225 230 246 253 257 258 257 261 269 276 277 275 276 279
313 310 310 311 312 312 312 310 310 309 308 305 301 298 292 287 283 281 279 276 272 266 264 264 263 262 263 258 251 255 241 228 220 216 212 210 211 211 213 215 215 213 212 213 213 207 198 192 197 204 205 209 208 206 212 214 215 216 215 220 223 227 230 225 224 225 222 221 213 224 248 239 224 221 221 232 244 249 255 259 262 266 269 272 273 271 269 269
313 311 310 311 312 312 310 309 309 308 306 304 300 297 294 291 288 284 280 276 271 265 262 262 262 264 264 260 252 249 244 235 227 217 211 211 210 210 211 213 214 213 211 210 209 206 199 195 198 200 202 207 207 205 210 212 214 215 215 219 219 224 228 221 218 221 220 218 213 224 247 239 225 225 226 232 238 243 250 256 263 267 267 268 266 264 263 260
315 311 309 309 309 309 309 309 308 307 307 305 302 299 296 293 290 286 282 278 274 269 265 263 263 265 266 266 260 252 249 242 234 219 212 211 206 205 207 210 212 212 209 208 206 204 199 198 200 199 200 203 204 207 209 208 212 213 214 218 219 222 226 218 211 215 217 215 213 224 244 240 228 225 215 221 233 241 248 252 259 261 261 261 258 261 260 253
318 314 311 310 308 308 309 309 308 307 307 305 303 300 297 293 289 286 283 280 277 273 270 267 266 266 267 269 263 254 249 240 235 224 217 212 204 199 201 207 210 209 207 204 203 201 199 200 201 200 200 201 201 205 207 209 210 209 212 215 217 219 222 217 209 209 212 212 217 224 237 240 233 223 210 215 232 243 250 250 253 259 260 256 252 257 258 253
323 319 315 313 310 309 309 309 308 308 307 305 303 301 298 294 290 288 284 281 278 275 273 270 269 268 266 265 260 255 248 240 236 227 221 216 206 197 197 204 206 206 204 201 200 199 199 201 202 201 200 200 202 202 204 213 210 204 208 210 213 217 217 216 208 205 208 212 221 227 233 237 236 227 219 222 232 243 250 252 256 259 259 254 246 249 253 255
327 322 318 315 311 309 309 309 307 306 305 305 305 304 301 297 294 292 288 283 279 276 273 270 267 266 265 262 257 253 247 244 243 229 220 217 208 200 199 202 203 203 201 199 198 197 199 201 202 202 202 201 202 201 204 212 208 200 203 205 205 211 215 217 210 205 206 212 222 229 232 233 234 233 229 228 234 244 251 256 260 255 249 249 243 242 246 250
328 323 319 315 309 307 308 306 304 305 307 308 308 307 304 301 299 295 292 288 283 278 275 273 265 262 261 257 252 252 249 247 247 232 217 214 207 203 202 201 203 203 200 198 197 197 198 200 200 202 203 201 201 203 205 209 205 201 203 206 206 207 212 216 214 211 211 216 224 228 232 233 233 234 232 231 234 242 248 254 257 247 241 246 245 241 241 246
331 324 318 315 309 307 306 303 304 307 311 311 309 308 305 302 299 296 294 291 287 282 276 272 269 265 258 248 245 251 254 248 244 234 218 210 205 204 202 201 202 202 201 199 197 198 199 200 203 204 204 202 202 204 207 208 202 202 206 208 210 211 213 216 217 218 219 223 226 227 231 232 232 234 233 233 236 241 247 251 250 240 239 245 246 242 239 242
336 328 322 316 309 307 307 304 307 312 314 312 310 311 310 309 307 304 303 295 289 285 280 277 274 270 259 244 241 248 250 243 238 236 222 210 205 205 202 199 201 202 201 199 197 199 200 205 207 206 205 203 204 206 208 209 203 203 208 208 212 215 214 213 213 216 221 227 229 228 229 230 231 232 231 231 235 240 245 249 247 239 241 242 239 236 234 235
340 332 325 319 311 312 312 309 312 315 316 313 311 314 316 317 315 312 309 302 299 296 290 286 279 274 263 242 236 242 245 240 234 229 223 213 207 205 201 199 202 202 200 198 197 199 203 209 209 206 206 204 206 208 208 210 207 206 208 208 212 215 216 215 211 212 219 226 229 228 230 232 232 233 232 234 239 243 246 250 247 243 244 239 233 231 229 229
342 334 327 322 318 320 320 315 315 318 318 314 312 317 318 316 314 311 308 302 305 313 305 294 284 280 271 244 234 236 237 237 232 222 220 216 209 206 202 200 203 203 200 199 199 200 205 211 209 205 206 205 206 209 208 211 212 211 210 211 211 211 215 219 213 212 219 225 228 229 233 236 235 236 238 242 247 250 250 250 249 246 245 240 234 231 230 233
343 338 330 324 321 325 323 316 316 320 320 315 314 320 318 315 313 309 307 302 307 322 324 304 289 283 278 243 231 233 232 233 230 216 212 216 210 206 203 201 203 204 202 201 202 203 206 211 208 204 205 205 206 208 208 211 214 213 214 214 210 207 210 214 211 211 219 226 230 234 244 247 242 240 242 246 249 251 250 248 246 244 240 234 230 229 231 235
341 341 337 329 323 323 321 314 315 321 322 318 318 321 318 316 314 313 313 308 311 332 341 322 303 289 272 221 219 223 225 227 221 204 203 210 208 205 203 202 205 205 203 203 204 208 208 208 208 205 204 205 206 208 208 210 213 215 216 214 209 205 202 202 205 209 217 226 231 233 244 254 247 243 243 246 250 251 250 247 244 244 240 232 227 227 229 232
339 341 341 335 324 319 317 313 315 322 323 318 318 320 320 319 317 321 321 310 308 337 346 337 321 300 296 242 226 215 218 227 215 193 198 204 202 202 202 202 205 205 205 203 206 213 209 203 208 207 205 205 206 208 209 209 213 217 216 211 207 204 198 205 215 220 220 220 222 222 227 249 251 248 245 245 248 249 248 245 242 241 240 235 231 229 228 231
338 339 341 339 327 318 316 315 316 323 323 317 319 321 322 321 317 324 328 310 297 334 341 336 327 330 352 352 247 207 209 231 209 192 197 201 196 198 199 201 204 204 203 201 207 217 209 201 205 207 206 206 205 207 207 208 212 216 213 207 208 205 199 214 229 226 229 239 233 229 239 253 255 252 245 241 241 243 243 242 239 238 237 236 234 232 231 232
340 338 339 339 329 319 318 317 317 321 322 318 319 319 320 320 316 324 330 310 297 327 337 336 311 317 330 4 278 209 201 214 196 193 195 194 193 196 196 199 204 202 201 199 205 215 208 202 202 204 206 207 207 206 205 207 211 213 209 207 212 210 210 227 240 238 245 260 255 249 251 252 254 251 243 236 233 235 237 237 237 237 236 235 233 233 232 232
341 338 336 336 329 320 319 319 317 318 321 321 319 318 319 315 315 322 314 253 305 324 340 360 72 350 330 14 18 212 202 162 160 186 188 187 191 196 195 197 202 202 203 204 205 211 211 206 204 205 208 208 208 206 204 206 210 210 209 211 215 216 223 234 241 247 249 256 255 253 250 238 254 249 235 228 227 229 233 234 235 236 237 238 236 234 233 231
339 337 334 333 327 319 319 320 317 314 318 322 318 317 317 311 314 322 277 270 314 325 342 17 23 357 5 74 45 191 201 187 133 170 184 185 188 193 192 193 199 201 205 209 208 205 210 209 207 209 212 210 209 207 205 207 209 210 210 213 217 223 233 234 228 245 249 244 248 251 252 246 252 251 236 229 227 225 226 229 232 235 237 239 239 237 234 233
338 336 332 328 323 318 317 318 315 311 317 322 316 315 316 312 308 284 214 307 317 324 337 353 348 344 354 293 245 192 201 191 154 168 183 186 184 185 183 184 191 194 201 208 207 200 194 206 210 212 213 210 208 208 207 206 207 210 211 212 219 230 236 236 232 234 230 247 247 248 255 248 233 244 243 234 231 228 223 223 225 228 232 236 238 236 235 234
338 335 329 323 318 313 308 312 313 310 317 320 314 315 313 311 292 239 280 315 316 322 326 331 332 324 307 272 231 196 199 196 181 175 183 189 191 184 177 179 182 182 191 199 198 197 194 201 210 213 213 210 207 206 204 205 206 206 208 209 212 220 220 221 222 216 209 241 247 248 257 246 234 248 248 237 233 228 222 222 223 227 231 234 236 236 235 233
336 333 328 319 312 305 298 303 308 306 314 317 315 313 305 301 284 275 299 310 311 320 323 325 324 320 300 260 230 197 196 199 195 180 178 190 198 190 180 181 182 182 191 191 188 194 198 202 207 207 210 209 205 203 199 201 204 201 201 204 202 168 172 214 221 197 223 238 244 249 255 239 235 252 248 236 230 220 219 225 228 234 240 238 238 237 235 233
335 332 330 322 310 298 292 296 301 303 307 311 313 311 296 279 283 298 306 308 318 326 329 329 324 319 295 234 220 199 194 199 196 179 172 185 196 195 187 184 183 184 187 181 183 191 193 202 205 199 202 205 205 205 201 199 201 201 200 204 207 202 177 184 195 176 188 228 241 237 231 217 212 232 238 229 221 217 224 230 229 233 239 239 239 238 236 232
337 334 334 330 317 300 293 296 299 301 304 308 309 300 284 276 290 306 312 314 325 330 330 332 327 320 270 205 202 194 192 196 196 186 175 182 193 196 193 189 184 177 171 175 184 193 194 208 206 196 198 203 202 204 203 200 200 201 201 205 213 212 204 216 220 193 190 205 232 212 211 234 220 213 221 221 221 225 232 235 229 226 226 228 232 235 237 233
343 339 339 339 330 311 300 297 295 299 304 305 300 295 290 293 304 313 317 320 327 329 327 334 343 336 228 194 192 191 190 193 196 196 190 186 193 196 196 196 188 173 166 176 182 188 197 215 205 192 195 202 202 201 200 199 197 197 200 206 211 208 211 233 250 209 189 194 211 202 212 230 223 206 203 209 219 225 231 235 226 215 214 218 224 231 236 235
349 347 347 349 343 329 315 303 296 299 304 298 294 301 306 312 320 323 323 324 328 330 324 325 340 0 206 189 187 189 190 187 191 199 199 191 196 198 199 201 193 176 164 175 181 182 192 202 197 192 190 195 202 200 200 201 197 197 201 204 205 205 217 230 241 204 158 183 211 204 204 207 204 198 195 202 213 218 225 230 220 210 208 211 220 228 232 234
354 354 355 355 350 338 321 311 306 302 300 295 296 306 314 320 327 326 325 326 327 327 316 302 315 9 163 197 186 177 184 186 185 196 200 194 199 200 199 200 192 178 164 168 180 181 187 190 192 194 188 183 194 197 200 204 202 202 204 203 202 201 211 218 221 191 162 167 210 208 212 206 201 198 191 199 211 215 220 220 211 206 204 205 214 221 226 227
355 356 357 358 354 344 328 320 313 300 290 291 297 306 316 321 325 324 324 327 325 321 310 297 306 337 345 192 174 162 177 189 188 193 197 195 199 203 202 201 189 178 172 167 176 178 184 186 182 190 188 179 186 195 199 203 203 203 206 205 206 207 208 208 214 226 191 177 195 207 236 214 206 205 194 198 208 212 212 206 199 200 200 202 208 212 218 221
356 357 359 3 3 359 343 321 306 289 284 293 302 310 318 319 318 320 322 320 318 316 306 300 300 317 357 153 168 159 167 180 185 191 195 194 194 198 205 202 187 180 182 174 176 179 180 183 174 182 188 190 195 199 200 200 199 201 205 206 203 204 206 207 217 230 219 166 165 174 253 220 209 209 200 193 200 203 201 198 200 201 197 199 204 206 213 216
359 0 4 10 12 13 1 327 307 291 290 300 308 313 318 317 311 315 321 315 319 321 300 285 285 303 26 141 165 159 166 173 174 181 189 197 195 194 206 202 188 186 193 187 185 185 177 181 176 176 187 199 203 202 202 201 199 199 203 206 203 201 197 190 210 223 223 233 194 177 211 216 206 211 210 197 194 197 195 193 197 198 194 196 200 203 210 212
4 4 8 15 18 20 15 359 343 319 308 312 316 315 316 313 305 311 320 311 319 326 284 244 193 170 122 144 156 158 172 176 174 179 189 201 201 197 204 201 189 187 197 191 187 186 181 206 208 182 191 202 206 205 204 204 202 200 204 208 209 208 203 194 188 204 212 232 224 194 206 208 204 209 206 187 184 189 187 184 187 191 193 195 198 201 205 207
8 7 8 15 20 20 15 10 5 348 333 329 326 323 318 308 303 309 314 307 317 325 281 231 150 146 140 138 146 157 171 175 174 183 195 206 209 201 195 196 193 192 198 198 195 194 199 227 239 184 189 198 205 210 210 208 205 202 205 210 213 214 212 210 212 206 206 211 196 167 191 212 209 213 209 188 178 179 179 181 187 190 189 191 196 197 197 199
11 11 9 13 19 19 14 9 6 358 348 342 337 337 331 305 301 310 310 300 298 305 308 321 97 126 136 141 152 160 163 172 181 185 195 209 210 196 186 193 199 198 194 194 198 197 198 211 205 162 165 180 194 202 203 205 206 204 205 210 214 217 216 217 221 214 206 206 194 179 196 207 204 213 217 205 186 182 183 185 187 188 187 187 191 190 190 194
12 15 12 10 16 18 17 12 8 5 358 355 357 3 359 329 319 340 350 335 278 257 359 48 106 122 139 153 171 166 141 145 177 180 190 207 206 191 191 196 200 199 191 184 188 195 198 210 216 186 164 165 179 185 190 195 199 202 205 208 212 216 216 215 216 210 205 208 200 192 197 198 197 206 216 216 203 192 191 191 188 187 187 187 188 189 188 189
11 15 14 13 15 17 21 21 15 11 5 1 6 13 10 354 346 1 16 16 27 128 101 108 122 127 141 153 174 179 140 111 141 165 191 217 232 197 198 200 198 196 188 168 154 174 207 229 240 224 200 186 183 187 192 193 191 192 197 202 205 207 210 212 211 207 207 210 207 209 214 211 202 203 208 213 209 201 198 197 192 187 185 187 191 192 191 188
13 15 15 18 16 13 21 29 27 22 13 3 1 5 8 9 9 16 33 46 70 113 121 124 126 130 138 140 159 180 157 98 92 233 219 226 251 171 188 199 200 194 180 164 168 198 246 261 260 251 222 200 191 187 193 193 190 188 189 191 195 198 204 210 212 212 214 218 220 221 224 229 226 212 206 209 210 205 202 200 192 186 184 187 190 191 192 191
19 21 18 19 17 12 17 24 27 26 18 9 8 9 14 20 21 27 60 111 107 116 125 121 122 129 135 140 148 155 91 82 168 232 230 181 93 150 176 191 198 193 183 180 196 219 249 275 278 258 215 197 190 182 189 194 195 197 197 192 189 195 202 211 217 218 221 227 240 239 227 228 231 221 210 210 215 210 204 198 192 188 188 190 192 194 196 197
19 26 25 23 21 17 15 16 22 26 21 16 16 14 19 23 21 26 52 92 100 105 113 111 116 117 106 96 94 54 355 2 148 154 112 85 93 146 167 177 190 196 197 202 214 228 244 266 274 200 169 176 180 176 184 190 190 196 202 203 198 195 201 210 220 221 223 228 235 247 242 226 217 211 203 204 212 208 200 196 194 192 192 196 199 202 203 205
16 19 22 25 26 21 17 15 18 24 25 24 22 19 23 25 21 32 51 77 87 90 97 98 100 92 66 54 46 0 310 295 20 93 87 77 93 136 157 166 179 191 200 206 216 231 235 245 250 170 149 148 162 172 178 184 184 189 200 206 204 196 200 209 215 216 218 223 227 237 240 215 198 194 190 191 199 198 193 195 197 196 199 203 206 210 212 215
18 15 13 19 25 24 21 18 17 20 23 27 26 26 31 29 21 34 50 69 83 91 98 90 80 75 74 57 332 301 287 290 337 101 98 83 96 135 157 169 177 185 193 202 214 220 216 226 250 188 159 131 147 169 172 170 178 188 197 202 202 196 199 209 212 210 212 217 220 220 221 211 194 182 178 179 178 176 183 192 197 200 205 209 212 216 219 223
20 19 14 15 23 26 23 20 20 20 20 25 29 31 35 33 22 28 40 59 81 99 110 100 89 86 121 240 281 296 286 265 163 121 105 93 110 146 167 172 174 180 193 206 215 206 199 210 269 193 168 126 140 169 173 166 168 186 195 200 202 196 193 202 209 210 210 210 211 211 213 211 195 177 169 170 169 170 176 185 193 199 205 208 212 217 222 226
Height
3075 3074 3072 3072 3071 3069 3068 3067 3067 3066 3065 3064 3063 3062 3061 3060 3060 3060 3060 3060 3060 3060 3060 3060 3061 3061 3062 3062 3063 3065 3067 3070 3073 3074 3077 3083 3081 3079 3082 3084 3086 3088 3091 3094 3097 3099 3102 3104 3106 3108 3108 3109 3110 3113 3115 3116 3119 3120 3118 3116 3115 3117 3120 3123 3126 3129 3131 3134 3138 3139 3140 3139 3140 3141 3141 3140 3139 3141 3142 3143 3144 3144 3145 3147 3148 3150 3151 3153
3072 3071 3070 3070 3068 3067 3066 3065 3065 3063 3062 3062 3061 3060 3059 3058 3057 3057 3057 3057 3056 3056 3056 3056 3057 3057 3057 3058 3059 3061 3063 3066 3068 3071 3074 3076 3074 3074 3078 3080 3082 3084 3087 3091 3093 3096 3099 3101 3102 3103 3103 3105 3107 3110 3111 3113 3115 3115 3114 3112 3111 3114 3118 3122 3125 3127 3130 3133 3135 3137 3136 3136 3137 3139 3139 3138 3138 3139 3140 3141 3143 3143 3144 3145 3147 3149 3150 3152
3070 3069 3068 3067 3066 3065 3064 3063 3062 3061 3060 3059 3058 3057 3057 3056 3055 3054 3054 3053 3053 3052 3052 3052 3052 3053 3053 3054 3055 3057 3059 3062 3064 3067 3069 3068 3069 3072 3075 3078 3079 3080 3084 3088 3090 3092 3095 3097 3098 3098 3100 3101 3104 3107 3108 3109 3111 3111 3111 3109 3109 3114 3118 3120 3123 3126 3128 3130 3132 3134 3134 3134 3135 3136 3136 3137 3137 3138 3139 3140 3141 3142 3143 3144 3146 3148 3149 3151
3068 3067 3066 3064 3063 3062 3061 3061 3059 3059 3058 3056 3056 3055 3054 3053 3052 3052 3051 3050 3050 3049 3048 3048 3048 3049 3049 3050 3051 3053 3055 3058 3059 3062 3063 3063 3066 3070 3072 3076 3077 3077 3081 3084 3086 3089 3091 3092 3093 3095 3097 3098 3102 3104 3104 3105 3107 3108 3107 3106 3109 3114 3116 3118 3122 3124 3126 3128 3129 3131 3131 3132 3133 3135 3135 3136 3136 3138 3139 3139 3140 3140 3141 3143 3145 3147 3148 3149
3066 3065 3063 3062 3061 3060 3059 3058 3057 3056 3055 3054 3053 3052 3051 3050 3050 3049 3048 3048 3047 3046 3045 3044 3045 3045 3046 3047 3047 3049 3052 3054 3054 3057 3058 3060 3063 3067 3071 3073 3073 3075 3079 3081 3083 3086 3087 3089 3090 3092 3093 3095 3099 3099 3099 3102 3105 3104 3103 3105 3110 3112 3114 3117 3120 3122 3124 3126 3127 3128 3129 3130 3132 3133 3134 3134 3135 3137 3138 3138 3139 3139 3140 3142 3143 3145 3147 3147
3063 3062 3061 3059 3058 3057 3056 3055 3053 3052 3051 3051 3050 3049 3048 3047 3047 3046 3045 3045 3044 3043 3042 3041 3041 3041 3042 3043 3044 3045 3048 3050 3051 3053 3055 3056 3060 3064 3068 3070 3071 3073 3075 3077 3080 3083 3084 3086 3087 3089 3090 3093 3095 3095 3097 3101 3102 3101 3102 3104 3108 3110 3113 3116 3118 3120 3122 3123 3124 3126 3127 3129 3130 3131 3132 3132 3133 3135 3136 3137 3137 3138 3138 3140 3142 3144 3144 3144
3061 3059 3058 3057 3055 3054 3053 3051 3050 3049 3048 3047 3046 3046 3045 3044 3044 3043 3043 3042 3041 3040 3039 3038 3038 3038 3039 3039 3040 3041 3042 3046 3049 3050 3052 3053 3057 3060 3064 3066 3067 3070 3072 3074 3077 3080 3082 3083 3084 3086 3088 3090 3092 3093 3097 3100 3099 3098 3100 3102 3106 3109 3111 3113 3116 3118 3120 3121 3122 3124 3125 3126 3127 3129 3131 3131 3132 3133 3135 3135 3136 3136 3137 3138 3140 3140 3140 3140
3059 3057 3055 3054 3052 3051 3050 3048 3047 3046 3045 3044 3043 3042 3042 3041 3041 3040 3040 3039 3038 3037 3036 3036 3035 3035 3035 3035 3036 3035 3038 3045 3048 3048 3050 3051 3053 3057 3059 3062 3063 3066 3068 3070 3073 3076 3078 3079 3081 3084 3086 3088 3090 3092 3096 3098 3096 3095 3097 3101 3104 3107 3109 3112 3114 3115 3117 3118 3120 3122 3122 3123 3126 3128 3129 3129 3131 3131 3133 3134 3134 3134 3135 3135 3136 3136 3136 3138
3057 3055 3053 3051 3050 3048 3047 3046 3045 3043 3042 3041 3040 3039 3039 3038 3038 3038 3037 3036 3036 3035 3034 3033 3033 3032 3032 3032 3032 3031 3036 3045 3045 3044 3047 3048 3050 3053 3055 3057 3059 3062 3066 3067 3069 3071 3073 3076 3080 3083 3085 3088 3089 3091 3094 3094 3092 3093 3096 3100 3103 3104 3107 3109 3111 3113 3115 3117 3118 3119 3119 3121 3125 3127 3126 3128 3129 3129 3131 3132 3132 3132 3132 3132 3133 3134 3136 3138
3055 3053 3051 3050 3048 3046 3045 3044 3042 3041 3040 3039 3038 3037 3036 3035 3035 3035 3035 3034 3033 3032 3032 3031 3030 3030 3029 3029 3028 3028 3037 3042 3039 3040 3043 3045 3047 3048 3050 3053 3055 3059 3063 3066 3066 3067 3071 3076 3080 3083 3084 3086 3087 3088 3091 3090 3091 3093 3097 3099 3101 3103 3105 3107 3108 3111 3113 3115 3116 3117 3117 3120 3123 3124 3124 3127 3128 3127 3129 3130 3130 3130 3129 3131 3132 3134 3136 3137
3053 3051 3049 3048 3046 3045 3043 3042 3041 3040 3038 3037 3036 3035 3034 3033 3033 3032 3032 3032 3031 3030 3029 3028 3028 3027 3026 3026 3025 3028 3035 3036 3034 3036 3038 3040 3042 3044 3046 3049 3052 3056 3060 3063 3064 3066 3070 3074 3078 3080 3081 3082 3084 3087 3088 3088 3090 3093 3096 3097 3098 3101 3103 3104 3106 3108 3111 3112 3114 3116 3117 3118 3121 3120 3122 3126 3126 3125 3127 3128 3128 3128 3128 3130 3132 3134 3135 3136
3051 3049 3048 3046 3045 3043 3042 3040 3039 3038 3036 3035 3034 3033 3032 3031 3030 3030 3030 3029 3028 3027 3026 3026 3025 3024 3023 3021 3024 3029 3030 3030 3030 3032 3034 3037 3039 3041 3043 3046 3049 3053 3057 3060 3063 3066 3068 3071 3073 3075 3077 3079 3082 3085 3086 3086 3088 3091 3093 3094 3096 3098 3099 3101 3103 3106 3109 3109 3112 3116 3115 3115 3117 3118 3122 3125 3123 3123 3124 3125 3126 3127 3128 3129 3131 3132 3133 3135
3049 3047 3046 3045 3043 3042 3040 3039 3037 3036 3034 3033 3031 3030 3029 3029 3028 3027 3027 3026 3025 3024 3023 3022 3021 3022 3019 3017 3024 3028 3025 3026 3028 3029 3033 3035 3037 3039 3042 3045 3048 3051 3055 3058 3062 3065 3066 3067 3068 3070 3075 3077 3079 3082 3082 3084 3086 3088 3091 3092 3094 3095 3094 3097 3102 3104 3106 3107 3111 3114 3112 3111 3114 3117 3121 3122 3121 3121 3122 3123 3125 3126 3127 3128 3129 3130 3132 3134
3047 3046 3044 3043 3042 3040 3038 3037 3035 3033 3032 3030 3029 3028 3026 3026 3025 3024 3023 3022 3022 3021 3020 3020 3019 3019 3015 3015 3024 3025 3021 3024 3026 3028 3031 3032 3034 3037 3040 3044 3046 3049 3052 3056 3060 3062 3064 3065 3065 3068 3072 3073 3077 3080 3080 3082 3084 3086 3089 3089 3091 3091 3090 3095 3100 3102 3104 3105 3109 3112 3109 3109 3113 3117 3119 3120 3119 3120 3120 3121 3123 3125 3127 3127 3128 3129 3130 3133
3046 3044 3042 3041 3039 3038 3036 3035 3033 3031 3029 3027 3026 3025 3024 3023 3022 3021 3020 3020 3019 3018 3018 3017 3017 3016 3013 3015 3021 3021 3020 3023 3023 3025 3025 3026 3030 3035 3038 3041 3043 3046 3050 3054 3058 3060 3062 3063 3063 3065 3067 3070 3076 3077 3078 3081 3082 3084 3085 3085 3087 3088 3090 3094 3098 3099 3101 3104 3108 3109 3107 3107 3111 3116 3118 3118 3118 3118 3118 3121 3123 3124 3125 3126 3127 3127 3129 3131
3044 3042 3040 3039 3037 3036 3034 3032 3030 3028 3026 3025 3023 3022 3021 3020 3019 3018 3017 3017 3016 3015 3015 3015 3015 3013 3011 3014 3018 3018 3018 3018 3018 3020 3021 3023 3027 3032 3035 3038 3040 3043 3047 3051 3055 3057 3059 3059 3060 3063 3065 3069 3071 3073 3077 3079 3078 3080 3081 3082 3084 3086 3090 3093 3095 3097 3100 3103 3105 3106 3106 3107 3110 3113 3116 3116 3116 3116 3117 3119 3121 3122 3123 3124 3125 3126 3128 3129
3042 3040 3038 3036 3035 3033 3031 3030 3027 3025 3024 3022 3021 3019 3018 3017 3016 3015 3014 3014 3013 3012 3012 3012 3012 3010 3009 3013 3015 3015 3015 3013 3014 3017 3019 3021 3026 3030 3032 3034 3038 3040 3044 3048 3050 3053 3055 3055 3057 3060 3063 3066 3067 3070 3073 3071 3071 3075 3077 3080 3083 3085 3088 3090 3092 3095 3098 3100 3102 3103 3104 3106 3109 3112 3114 3115 3115 3114 3115 3117 3119 3120 3122 3122 3123 3124 3126 3127
3040 3038 3036 3034 3032 3030 3029 3027 3025 3023 3021 3020 3018 3016 3015 3013 3012 3011 3010 3010 3009 3009 3008 3008 3009 3006 3006 3011 3012 3011 3011 3010 3012 3015 3016 3019 3024 3028 3029 3032 3036 3038 3041 3044 3046 3049 3050 3051 3055 3058 3059 3061 3062 3063 3064 3063 3066 3072 3074 3078 3081 3084 3086 3087 3090 3093 3096 3098 3100 3101 3102 3104 3107 3110 3111 3113 3113 3112 3113 3115 3117 3119 3120 3120 3121 3123 3124 3126
3038 3035 3034 3032 3030 3028 3026 3024 3022 3020 3019 3017 3016 3014 3012 3010 3009 3008 3007 3006 3005 3005 3004 3003 3003 3002 3004 3009 3009 3007 3008 3009 3010 3012 3014 3016 3021 3024 3026 3030 3033 3035 3038 3040 3042 3045 3046 3048 3051 3051 3050 3052 3054 3057 3060 3063 3069 3073 3075 3078 3080 3082 3084 3086 3089 3093 3095 3097 3098 3099 3101 3103 3105 3107 3109 3111 3111 3111 3112 3113 3115 3117 3118 3118 3119 3121 3123 3124
3035 3033 3031 3029 3027 3026 3024 3022 3020 3019 3017 3015 3013 3012 3010 3008 3006 3005 3004 3003 3002 3001 3000 2999 2998 2998 3001 3006 3007 3005 3006 3008 3008 3010 3012 3014 3017 3020 3023 3027 3030 3031 3033 3036 3039 3042 3044 3044 3042 3041 3044 3050 3054 3058 3062 3066 3071 3074 3076 3078 3080 3082 3083 3086 3089 3092 3095 3096 3097 3098 3100 3101 3103 3105 3107 3109 3109 3109 3110 3111 3113 3115 3115 3116 3118 3119 3120 3122
3033 3031 3029 3027 3025 3024 3023 3021 3019 3017 3016 3013 3011 3010 3008 3006 3004 3002 3000 2999 2999 2998 2996 2996 2994 2992 2996 3002 3004 3002 3002 3004 3006 3008 3010 3011 3013 3015 3019 3023 3025 3026 3029 3033 3037 3040 3041 3038 3037 3041 3047 3053 3056 3059 3063 3067 3071 3073 3075 3077 3079 3080 3083 3086 3089 3092 3094 3094 3095 3098 3098 3099 3101 3103 3105 3106 3106 3107 3108 3110 3111 3113 3114 3114 3115 3116 3118 3120
3032 3030 3028 3026 3024 3023 3021 3019 3018 3016 3014 3012 3010 3008 3007 3005 3003 3000 2998 2994 2994 2995 2994 2993 2991 2988 2991 2996 2999 2998 2997 2998 3002 3006 3008 3009 3010 3011 3015 3019 3021 3023 3027 3031 3034 3036 3035 3032 3035 3043 3049 3053 3056 3059 3063 3066 3069 3071 3073 3075 3077 3079 3083 3085 3088 3091 3092 3093 3094 3096 3096 3097 3099 3100 3101 3102 3103 3105 3106 3108 3110 3111 3111 3112 3113 3114 3116 3118
3031 3028 3027 3025 3023 3022 3021 3018 3016 3014 3012 3010 3009 3007 3006 3004 3002 3000 2997 2992 2990 2991 2991 2989 2988 2985 2987 2991 2993 2992 2991 2993 2998 3003 3005 3006 3007 3009 3013 3016 3019 3022 3026 3028 3029 3030 3030 3030 3036 3044 3048 3052 3055 3058 3062 3065 3067 3069 3071 3073 3075 3079 3082 3084 3087 3089 3091 3092 3093 3094 3095 3095 3096 3097 3098 3099 3101 3102 3104 3105 3107 3108 3109 3110 3111 3113 3114 3115
3030 3027 3026 3024 3022 3021 3019 3017 3014 3012 3010 3009 3007 3006 3005 3003 3001 2999 2996 2992 2988 2988 2988 2987 2985 2983 2984 2987 2988 2987 2987 2990 2995 3000 3002 3003 3004 3007 3010 3013 3017 3020 3022 3025 3027 3028 3029 3032 3038 3043 3047 3051 3053 3056 3060 3062 3064 3067 3070 3072 3074 3078 3081 3084 3087 3088 3089 3091 3091 3093 3094 3092 3092 3094 3095 3097 3098 3099 3101 3102 3104 3105 3107 3108 3109 3111 3112 3113
3029 3026 3024 3023 3021 3019 3018 3015 3013 3011 3009 3007 3006 3005 3004 3002 3000 2998 2995 2991 2987 2986 2986 2984 2982 2982 2981 2981 2980 2981 2984 2985 2990 2996 2998 2999 3002 3004 3008 3012 3014 3017 3020 3024 3027 3028 3030 3034 3038 3042 3045 3048 3051 3054 3057 3059 3063 3066 3068 3071 3075 3079 3081 3084 3086 3087 3088 3089 3090 3092 3093 3089 3089 3091 3093 3094 3096 3097 3098 3099 3101 3103 3105 3106 3107 3108 3110 3111
3027 3025 3023 3021 3020 3018 3016 3014 3011 3010 3008 3006 3005 3004 3002 3001 2999 2997 2994 2991 2987 2985 2984 2982 2981 2980 2980 2979 2978 2980 2982 2982 2987 2994 2994 2996 3000 3002 3006 3009 3011 3015 3019 3024 3027 3026 3029 3034 3037 3040 3043 3046 3049 3052 3055 3058 3062 3064 3067 3072 3076 3079 3081 3082 3084 3086 3087 3088 3089 3090 3091 3088 3087 3088 3090 3092 3093 3094 3095 3096 3098 3100 3102 3103 3105 3106 3107 3109
3026 3024 3022 3020 3018 3016 3014 3013 3011 3009 3007 3005 3004 3002 3001 3000 2998 2996 2994 2991 2987 2984 2983 2981 2981 2980 2979 2979 2978 2980 2982 2982 2986 2991 2991 2995 2998 3000 3004 3006 3009 3014 3018 3024 3025 3022 3026 3032 3035 3038 3042 3044 3046 3048 3052 3057 3060 3063 3067 3073 3076 3078 3080 3081 3083 3085 3085 3086 3086 3087 3089 3088 3085 3085 3087 3089 3090 3091 3092 3093 3095 3097 3098 3100 3102 3104 3105 3106
3025 3023 3021 3019 3017 3014 3013 3012 3010 3008 3006 3005 3003 3002 3000 2999 2998 2997 2995 2993 2987 2984 2982 2981 2980 2980 2979 2979 2979 2980 2982 2983 2985 2988 2991 2995 2997 2999 3002 3005 3008 3012 3016 3019 3019 3020 3025 3030 3032 3035 3039 3040 3042 3047 3052 3056 3059 3063 3068 3073 3075 3078 3080 3080 3082 3084 3085 3085 3084 3083 3087 3087 3083 3083 3085 3086 3087 3087 3088 3089 3091 3093 3095 3098 3099 3101 3103 3105
3024 3021 3019 3018 3016 3013 3011 3010 3009 3007 3006 3004 3002 3001 3000 2999 2998 2996 2997 2994 2986 2983 2982 2980 2980 2980 2979 2979 2979 2980 2982 2983 2985 2988 2992 2995 2996 2998 3001 3004 3008 3012 3015 3017 3019 3022 3026 3029 3033 3036 3037 3038 3042 3048 3053 3056 3059 3064 3069 3072 3075 3077 3079 3080 3082 3083 3084 3084 3080 3080 3084 3085 3082 3080 3082 3083 3083 3083 3084 3087 3089 3091 3093 3095 3097 3099 3101 3102
3022 3020 3018 3016 3014 3012 3010 3009 3008 3006 3004 3003 3001 3000 2999 2998 2997 2996 2997 2992 2985 2983 2982 2981 2981 2980 2979 2979 2980 2980 2981 2982 2984 2988 2992 2994 2995 2998 3001 3005 3009 3012 3015 3017 3021 3024 3027 3031 3034 3035 3036 3039 3044 3050 3053 3056 3060 3065 3068 3071 3074 3076 3077 3079 3081 3082 3083 3081 3077 3078 3082 3084 3082 3078 3078 3079 3079 3080 3082 3085 3087 3089 3091 3092 3094 3096 3098 3100
3021 3018 3016 3014 3012 3011 3009 3008 3006 3004 3003 3002 3000 2999 2999 2998 2997 2997 2995 2988 2984 2983 2982 2981 2981 2980 2979 2979 2980 2980 2981 2982 2983 2986 2989 2992 2994 2997 3000 3004 3007 3011 3014 3016 3020 3024 3027 3029 3031 3032 3035 3040 3045 3049 3052 3056 3060 3063 3067 3070 3073 3074 3076 3078 3079 3080 3080 3077 3075 3076 3080 3082 3080 3076 3075 3075 3076 3079 3081 3082 3084 3085 3087 3089 3091 3093 3096 3097
3019 3017 3014 3012 3010 3009 3007 3006 3004 3003 3002 3001 3000 2999 2998 2997 2995 2993 2990 2986 2984 2983 2981 2981 2981 2980 2980 2979 2979 2980 2981 2981 2982 2984 2987 2990 2992 2994 2996 2999 3002 3006 3009 3011 3016 3022 3024 3025 3028 3032 3035 3039 3043 3046 3051 3055 3057 3060 3064 3067 3070 3072 3074 3076 3076 3076 3076 3075 3074 3076 3078 3078 3075 3073 3073 3074 3075 3078 3080 3081 3082 3084 3085 3087 3089 3091 3093 3095
3018 3015 3012 3009 3007 3006 3005 3004 3003 3002 3001 3000 2999 2998 2997 2997 2994 2989 2987 2986 2984 2982 2980 2979 2978 2978 2978 2977 2978 2979 2980 2981 2982 2984 2986 2988 2991 2994 2996 2998 3000 3002 3004 3008 3014 3019 3022 3025 3027 3030 3032 3035 3038 3041 3044 3047 3050 3054 3058 3061 3065 3068 3070 3073 3074 3075 3074 3073 3073 3075 3077 3074 3072 3071 3071 3072 3074 3077 3078 3079 3081 3083 3085 3086 3087 3089 3092 3093
3015 3012 3009 3007 3004 3004 3003 3002 3001 3000 2999 2998 2998 2997 2996 2995 2991 2987 2986 2985 2983 2981 2980 2978 2975 2975 2975 2975 2976 2978 2979 2981 2982 2984 2986 2988 2990 2993 2995 2997 3000 3002 3004 3009 3014 3016 3019 3020 3021 3023 3027 3030 3033 3036 3040 3044 3047 3052 3056 3059 3062 3063 3066 3070 3071 3071 3072 3072 3072 3073 3074 3070 3069 3069 3069 3071 3073 3075 3077 3078 3080 3082 3084 3085 3087 3089 3090 3092
3013 3009 3007 3004 3002 3001 3001 3000 2999 2999 2998 2997 2996 2995 2995 2991 2988 2986 2985 2984 2982 2980 2978 2976 2974 2972 2972 2973 2975 2977 2978 2980 2982 2984 2986 2987 2989 2991 2993 2995 2998 3002 3004 3008 3012 3015 3017 3016 3016 3021 3026 3029 3032 3036 3041 3045 3048 3052 3056 3059 3060 3061 3065 3067 3067 3068 3069 3070 3069 3069 3069 3067 3067 3067 3068 3070 3071 3073 3075 3076 3078 3081 3082 3084 3085 3087 3089 3090
3012 3008 3005 3003 3001 3000 2999 2999 2998 2997 2996 2995 2994 2993 2992 2990 2987 2986 2984 2982 2981 2979 2977 2975 2974 2972 2972 2973 2974 2976 2978 2980 2982 2984 2985 2987 2989 2991 2993 2995 2998 3001 3003 3006 3009 3013 3016 3017 3018 3023 3026 3029 3032 3036 3040 3044 3046 3050 3053 3054 3057 3062 3066 3066 3065 3066 3067 3067 3067 3066 3065 3065 3066 3065 3066 3068 3069 3071 3072 3074 3077 3079 3080 3081 3083 3086 3088 3089
3011 3007 3004 3002 3000 2999 2998 2998 2997 2996 2995 2994 2993 2991 2989 2988 2987 2985 2983 2981 2980 2978 2976 2975 2974 2973 2973 2973 2974 2975 2977 2980 2981 2983 2984 2986 2988 2989 2992 2995 2998 3001 3003 3006 3010 3013 3016 3018 3019 3021 3024 3029 3033 3036 3040 3043 3045 3047 3049 3053 3059 3064 3066 3065 3065 3066 3066 3066 3064 3063 3064 3064 3064 3063 3064 3066 3067 3069 3070 3072 3075 3077 3078 3080 3082 3084 3086 3087
3009 3006 3004 3001 3000 2999 2998 2997 2996 2995 2994 2992 2991 2989 2987 2986 2985 2984 2982 2980 2978 2977 2977 2975 2974 2974 2973 2973 2974 2975 2977 2979 2981 2982 2984 2986 2988 2989 2992 2995 2998 3001 3004 3007 3010 3013 3016 3017 3019 3021 3024 3028 3032 3036 3039 3042 3044 3047 3049 3053 3057 3060 3061 3063 3064 3064 3065 3065 3063 3062 3063 3062 3062 3062 3063 3065 3066 3067 3068 3070 3073 3074 3076 3078 3080 3082 3084 3086
3008 3006 3004 3001 2999 2998 2997 2996 2995 2994 2993 2991 2989 2987 2985 2984 2983 2982 2981 2979 2977 2976 2976 2975 2974 2974 2973 2973 2974 2975 2977 2979 2981 2983 2984 2986 2988 2990 2992 2995 2999 3001 3004 3007 3010 3013 3015 3017 3018 3021 3025 3028 3031 3033 3033 3036 3041 3046 3050 3052 3053 3056 3059 3061 3062 3060 3061 3063 3063 3062 3061 3061 3060 3061 3062 3064 3065 3066 3067 3068 3070 3072 3075 3077 3079 3080 3082 3083
3009 3006 3003 3001 2999 2997 2996 2995 2994 2993 2991 2989 2987 2986 2984 2982 2981 2980 2979 2978 2977 2976 2975 2974 2974 2974 2973 2973 2973 2975 2977 2979 2981 2983 2985 2986 2988 2990 2992 2996 2999 3001 3004 3007 3010 3012 3014 3016 3017 3020 3024 3027 3026 3025 3026 3030 3036 3041 3045 3047 3049 3054 3057 3059 3060 3059 3058 3060 3061 3061 3061 3059 3059 3061 3062 3063 3064 3065 3066 3068 3069 3072 3074 3076 3077 3079 3081 3082
3009 3006 3003 3001 2999 2997 2996 2994 2993 2992 2990 2987 2986 2984 2983 2981 2979 2978 2978 2976 2975 2975 2974 2974 2974 2973 2973 2973 2974 2975 2977 2980 2982 2983 2985 2986 2988 2990 2992 2996 2999 3002 3004 3006 3008 3010 3013 3015 3016 3018 3021 3021 3021 3023 3027 3031 3034 3037 3041 3044 3048 3052 3055 3056 3057 3057 3057 3058 3058 3059 3059 3058 3058 3060 3061 3062 3063 3065 3067 3068 3069 3071 3074 3075 3077 3078 3080 3082
3008 3005 3003 3001 2999 2997 2996 2994 2993 2992 2989 2987 2985 2983 2982 2980 2978 2977 2976 2975 2974 2974 2973 2973 2973 2973 2973 2973 2974 2976 2978 2980 2982 2984 2985 2986 2988 2990 2993 2996 2999 3001 3004 3006 3007 3010 3013 3014 3015 3016 3017 3019 3022 3026 3029 3032 3035 3039 3042 3045 3048 3050 3052 3053 3054 3055 3056 3057 3057 3057 3057 3057 3058 3060 3061 3062 3063 3064 3067 3068 3069 3071 3073 3075 3076 3077 3079 3081
3009 3006 3004 3002 3000 2997 2995 2994 2992 2991 2988 2986 2984 2982 2981 2979 2977 2976 2975 2974 2974 2973 2972 2973 2973 2973 2974 2974 2975 2976 2978 2980 2982 2984 2985 2987 2989 2990 2993 2997 2999 3001 3004 3006 3008 3011 3013 3014 3014 3015 3018 3021 3025 3028 3030 3033 3036 3038 3040 3043 3046 3048 3050 3052 3054 3054 3054 3055 3055 3056 3057 3056 3057 3059 3060 3062 3063 3064 3066 3068 3069 3071 3072 3074 3076 3077 3079 3080
3010 3007 3005 3002 3000 2997 2995 2993 2991 2990 2988 2986 2983 2981 2980 2978 2976 2976 2975 2974 2974 2973 2972 2972 2973 2973 2974 2975 2976 2977 2979 2981 2982 2983 2986 2987 2988 2990 2993 2996 2998 3001 3003 3005 3008 3010 3012 3013 3013 3014 3017 3021 3024 3026 3028 3030 3032 3034 3037 3040 3043 3047 3049 3052 3053 3053 3052 3053 3053 3054 3055 3055 3056 3058 3059 3061 3062 3063 3065 3066 3068 3071 3072 3074 3075 3076 3078 3080
3010 3007 3005 3003 3000 2998 2995 2993 2991 2989 2987 2985 2983 2981 2979 2977 2976 2975 2974 2974 2973 2973 2973 2972 2973 2974 2975 2976 2977 2978 2980 2981 2982 2984 2986 2987 2988 2990 2992 2994 2997 2999 3001 3005 3008 3010 3011 3012 3014 3014 3014 3016 3018 3019 3019 3021 3025 3030 3034 3037 3041 3044 3047 3049 3050 3050 3050 3051 3051 3052 3053 3053 3054 3056 3057 3059 3060 3062 3064 3066 3068 3070 3072 3073 3074 3076 3077 3079
3010 3008 3005 3003 3000 2998 2996 2993 2991 2989 2987 2984 2982 2980 2978 2977 2976 2975 2974 2974 2973 2973 2973 2973 2974 2975 2976 2977 2979 2980 2980 2982 2983 2984 2986 2987 2988 2989 2991 2993 2995 2997 3001 3006 3008 3010 3011 3012 3013 3014 3014 3014 3015 3015 3016 3018 3023 3028 3032 3036 3039 3042 3044 3046 3047 3048 3049 3050 3050 3051 3051 3052 3053 3055 3056 3057 3058 3060 3062 3064 3067 3069 3071 3072 3074 3076 3078 3080
3011 3008 3006 3003 3001 2999 2997 2994 2992 2990 2987 2985 2982 2980 2978 2977 2975 2975 2974 2974 2974 2974 2974 2974 2975 2976 2977 2978 2979 2980 2980 2981 2983 2984 2985 2986 2986 2987 2989 2992 2994 2997 3002 3006 3008 3010 3011 3011 3012 3013 3014 3016 3017 3018 3019 3021 3024 3028 3031 3035 3037 3040 3042 3044 3045 3046 3048 3049 3049 3050 3051 3052 3052 3054 3055 3056 3057 3058 3060 3063 3066 3068 3070 3072 3074 3076 3078 3080
3013 3010 3007 3005 3003 3000 2997 2994 2992 2990 2988 2986 2983 2981 2979 2977 2976 2976 2975 2975 2975 2975 2975 2975 2976 2977 2978 2979 2979 2979 2980 2981 2982 2983 2984 2984 2984 2985 2988 2992 2996 2999 3003 3006 3008 3010 3011 3011 3011 3011 3012 3015 3017 3018 3019 3022 3025 3028 3032 3035 3037 3039 3041 3043 3044 3046 3048 3048 3049 3050 3050 3050 3051 3053 3054 3055 3056 3057 3059 3062 3065 3067 3070 3072 3074 3076 3078 3079
3014 3012 3010 3007 3005 3002 2999 2996 2993 2990 2988 2986 2984 2982 2980 2978 2977 2977 2976 2976 2976 2976 2977 2977 2977 2977 2978 2979 2979 2979 2980 2980 2981 2983 2983 2983 2983 2985 2988 2992 2997 3001 3004 3007 3008 3010 3011 3011 3011 3012 3012 3014 3016 3018 3020 3022 3024 3028 3032 3034 3036 3038 3040 3042 3044 3045 3047 3048 3049 3049 3050 3050 3051 3052 3053 3054 3055 3056 3058 3062 3065 3067 3070 3072 3074 3076 3077 3078
3013 3012 3010 3009 3006 3003 3000 2997 2994 2991 2989 2986 2984 2983 2981 2979 2978 2977 2977 2977 2977 2978 2978 2978 2978 2979 2979 2979 2980 2980 2981 2981 2981 2982 2983 2982 2983 2985 2988 2992 2996 3001 3004 3006 3008 3009 3010 3010 3011 3012 3012 3013 3015 3017 3020 3021 3024 3027 3030 3033 3035 3037 3039 3041 3042 3044 3045 3046 3048 3049 3050 3050 3050 3051 3052 3052 3053 3055 3058 3061 3065 3067 3069 3072 3073 3075 3076 3077
3015 3013 3011 3009 3006 3004 3001 2998 2995 2992 2989 2987 2985 2983 2982 2981 2980 2978 2978 2978 2978 2979 2979 2979 2980 2980 2981 2981 2981 2982 2982 2981 2981 2981 2982 2982 2984 2986 2989 2993 2997 3001 3003 3005 3007 3009 3009 3009 3010 3010 3011 3012 3013 3016 3019 3021 3024 3027 3029 3031 3033 3035 3037 3039 3041 3042 3044 3045 3046 3048 3049 3050 3051 3051 3052 3053 3053 3055 3058 3061 3064 3067 3069 3071 3073 3073 3074 3076
3017 3015 3012 3010 3007 3004 3002 2999 2996 2993 2990 2988 2986 2985 2983 2982 2981 2980 2979 2979 2979 2980 2980 2980 2981 2981 2982 2982 2982 2982 2981 2981 2981 2981 2982 2983 2985 2987 2990 2995 2998 3001 3003 3004 3006 3008 3008 3008 3008 3009 3010 3011 3013 3015 3018 3021 3024 3026 3027 3029 3032 3034 3036 3038 3039 3041 3043 3043 3045 3047 3048 3050 3051 3051 3052 3053 3055 3057 3059 3062 3064 3067 3069 3070 3071 3072 3073 3075